User: anonymous   Login
Location: Ellerstadt
(49.4644°N, 8.2615°E)
Time: 16:34:18
(UTC+00:00)
Language:

Cosmos 1992 Rocket - Orbit

View from above orbital plane
View from above orbital plane
View from above satellite
View from above satellite

Ground track
Ground track

The orbit data is extracted from the following two-line orbital elements,

1 19770U 89005B   21135.90089108  .00000028  00000-0  17525-4 0  9997
2 19770  74.0442 295.8868 0004665  10.2517  99.2627 14.38871974691766
Epoch (UTC): 15 May 2021 21:37:16
Eccentricity: 0.0004665
inclination: 74.0442°
perigee height: 759 km
apogee height: 765 km
right ascension of ascending node: 295.8868°
argument of perigee: 10.2517°
revolutions per day: 14.38871974
mean anomaly at epoch: 99.2627°
orbit number at epoch: 69176

The dashed part of the orbit path shows where the satellite is in the earth's shadow,  

DLR